RH
18 18 17 17 17 17 16 17 17 17 17 17 16 15 16 16 16 18 20 21 21 21 22 22 24 26 25 24 24 25 25 24 23 21 20 19 17 18 18 17 18 20 20 20 19 19 19 20 19 18 17 17 16 15 14 15 15 16 19 20 20 21 20 20 21 20 19 20 20 20 20 20 19 20 20 21 25 32 38 39 41 42 46 47 49 54 56 57
19 19 18 18 17 17 17 16 16 16 16 16 15 14 15 15 16 19 21 21 21 21 22 22 26 29 29 29 28 27 25 24 23 21 20 19 17 17 17 18 19 20 19 19 19 19 19 19 19 18 17 17 16 15 15 15 15 17 20 20 21 21 19 19 20 19 19 20 21 20 20 19 19 19 20 21 23 28 36 42 40 41 46 48 53 57 59 59
20 20 19 19 19 19 18 17 17 16 16 16 16 15 15 16 18 22 24 23 23 23 23 24 27 29 29 29 28 27 27 26 24 23 22 20 19 17 18 20 21 20 20 20 20 19 20 20 19 19 18 18 17 16 16 16 16 17 19 20 22 21 19 19 19 19 19 20 21 21 20 19 19 19 20 21 22 24 30 40 46 45 47 52 57 58 61 64
19 20 20 20 20 19 19 19 18 18 17 17 18 17 16 18 21 25 27 27 26 26 26 27 29 30 29 28 27 29 29 29 27 25 24 22 20 19 20 23 23 22 22 22 22 22 22 22 21 21 21 21 20 19 18 18 18 18 18 21 22 21 21 20 20 20 19 20 21 21 21 20 19 19 19 20 22 23 24 32 47 52 52 55 58 58 60 64
17 19 20 21 21 20 20 20 20 20 19 19 20 20 21 23 25 28 30 29 28 27 27 28 29 30 29 28 30 32 33 33 31 30 27 24 21 20 21 23 24 24 24 23 24 24 24 24 23 23 23 23 23 23 22 21 20 19 20 21 21 21 21 21 20 20 20 21 22 22 21 21 20 19 19 20 22 23 22 26 39 47 48 49 55 57 57 60
17 19 21 23 23 23 22 22 21 20 21 22 25 27 26 27 28 31 31 29 28 27 27 27 28 28 29 30 33 34 35 36 33 31 30 28 25 23 23 24 25 25 25 24 25 25 25 25 25 25 25 24 25 25 24 23 22 22 22 22 21 21 21 21 21 21 21 22 23 23 22 21 21 19 18 20 22 24 25 28 35 41 41 43 50 54 54 58
18 20 23 25 25 25 23 23 23 23 25 27 29 30 29 28 29 31 30 28 27 26 26 26 26 27 29 33 36 36 36 36 33 31 31 30 29 27 27 27 27 28 27 26 26 25 25 25 26 26 26 26 26 25 25 24 23 23 24 23 22 21 21 21 21 21 21 22 23 23 22 22 21 21 20 23 27 31 33 35 39 41 40 41 43 46 53 59
18 20 24 26 27 27 26 27 26 27 29 29 31 31 30 28 29 30 29 28 27 27 26 26 27 29 32 36 38 37 36 35 33 31 31 30 29 29 29 28 28 28 28 27 27 26 26 26 27 26 27 27 26 26 25 25 23 24 24 23 22 22 21 21 21 21 21 22 23 23 23 22 22 23 23 25 31 37 39 40 42 42 42 41 40 43 52 58
23 24 27 31 32 33 33 32 31 31 31 30 31 31 29 28 28 29 29 29 28 27 27 27 30 32 34 36 37 37 36 35 34 32 32 31 30 31 31 30 30 30 29 28 28 28 28 28 28 27 28 27 27 27 26 25 24 24 24 23 22 22 22 22 21 21 20 21 21 22 22 22 22 25 24 25 30 36 40 39 41 42 42 41 40 42 47 53
26 26 30 33 36 37 36 34 35 35 33 31 30 31 30 28 29 30 30 29 27 27 27 29 32 34 34 35 35 35 34 33 34 35 35 34 33 32 32 32 32 32 31 30 30 30 30 29 29 28 28 28 28 27 27 26 25 25 24 24 23 23 23 22 21 20 20 20 20 21 22 21 21 23 24 25 29 34 37 35 36 37 37 38 39 40 42 46
25 26 29 33 36 37 35 35 37 38 38 34 30 31 30 28 29 29 28 27 25 25 26 29 32 33 34 34 34 34 33 33 34 35 36 36 35 33 32 32 33 33 32 32 31 31 30 29 29 29 29 29 29 28 28 27 26 26 25 24 23 23 23 22 21 21 21 21 21 21 21 22 22 22 23 28 32 32 32 32 31 32 34 36 38 40 42 45
25 25 27 31 35 36 35 36 38 39 40 37 31 30 30 28 28 27 26 24 22 23 25 28 30 32 34 33 32 33 33 33 34 35 35 36 35 34 33 32 32 33 33 32 32 31 31 31 31 31 30 30 30 29 29 28 27 26 25 23 23 23 23 23 23 23 22 22 21 21 24 27 28 27 27 32 34 32 31 33 34 34 35 37 38 40 42 44
26 26 26 29 33 36 36 37 39 39 39 37 31 29 29 27 26 25 22 21 22 25 26 27 29 32 32 31 31 31 32 33 33 33 33 33 34 34 33 31 30 32 33 32 33 33 33 33 33 34 33 32 32 31 29 28 26 24 23 23 24 24 23 23 24 24 24 25 21 22 30 34 33 32 32 34 35 33 32 34 35 35 35 36 37 37 38 39
26 26 26 28 31 36 37 37 38 38 38 36 31 28 27 25 23 22 21 23 25 27 29 30 31 32 32 31 31 32 32 34 33 32 31 30 32 32 33 32 31 32 33 34 34 34 34 34 35 35 34 33 32 31 30 28 27 25 24 24 24 23 22 22 24 24 24 26 22 23 33 37 34 33 32 32 33 31 31 33 33 33 33 33 33 33 34 34
26 27 26 28 31 36 39 38 37 37 35 35 33 29 25 23 21 21 23 25 27 27 29 32 33 34 34 33 33 33 33 34 33 32 30 29 29 31 33 34 33 33 33 33 33 33 33 34 34 34 34 33 32 31 30 28 29 28 25 25 25 21 20 21 24 23 22 24 23 24 33 36 32 32 31 31 31 29 29 31 31 31 31 31 31 31 31 32
26 27 27 27 30 36 40 39 37 36 34 33 35 30 23 22 22 23 24 26 27 29 31 33 33 35 36 35 34 34 33 34 33 32 30 29 30 32 34 36 37 35 33 32 32 32 32 32 32 33 32 31 31 31 29 28 29 29 26 25 23 20 20 21 23 23 22 23 23 24 30 34 31 30 30 31 32 29 28 30 31 31 30 29 29 29 29 30
26 28 28 27 29 35 40 39 37 36 35 33 33 30 24 23 24 24 25 27 29 31 33 33 34 36 37 36 35 34 33 33 33 31 31 31 33 34 36 38 38 36 35 34 33 32 31 30 30 31 30 30 30 29 27 27 28 27 27 25 22 20 20 21 23 24 23 24 26 27 29 31 30 30 31 32 31 29 29 30 31 31 30 30 30 29 29 30
26 29 29 27 28 34 39 39 37 36 36 33 31 30 25 24 24 25 26 28 31 33 34 35 36 39 38 36 36 34 32 33 34 34 34 34 36 37 38 39 38 37 36 34 33 31 30 29 30 30 30 29 28 27 26 26 26 25 25 24 22 22 22 23 25 26 25 26 29 30 31 33 32 32 33 33 32 31 31 31 31 31 30 30 29 30 30 29
25 29 30 28 28 33 39 39 37 37 35 32 30 29 26 25 25 27 29 31 33 35 37 37 39 42 39 37 37 35 33 34 35 36 37 37 39 40 41 40 37 35 33 31 30 29 28 30 32 31 30 28 26 26 24 25 26 25 24 24 25 26 26 26 27 28 27 28 33 33 33 36 37 37 36 35 35 34 33 31 31 31 30 31 31 31 32 32
25 28 30 30 30 34 39 39 38 37 34 31 30 30 29 29 30 31 32 33 35 37 38 39 41 42 40 38 38 36 34 34 35 37 39 39 40 41 41 39 36 32 29 29 29 29 30 34 35 32 30 28 28 27 25 26 28 27 26 27 27 27 29 29 29 31 29 31 38 36 36 40 41 40 38 36 38 36 34 33 32 32 32 33 34 35 36 37
23 27 30 31 32 35 39 40 38 37 33 30 31 32 34 36 37 37 35 34 35 37 38 38 39 39 39 38 38 37 36 35 36 39 40 39 39 38 36 35 33 30 28 28 28 29 32 35 33 32 31 30 29 29 28 28 30 31 31 30 29 27 30 31 32 34 32 33 42 41 39 44 43 42 41 39 41 40 38 36 35 35 35 36 38 40 41 42
21 26 28 32 34 35 39 40 38 38 33 30 32 35 37 38 37 38 38 38 37 38 38 37 38 39 39 38 37 38 38 37 37 38 37 36 35 33 31 31 31 29 28 29 30 33 35 33 30 30 31 31 31 32 30 30 33 35 34 33 33 31 31 33 34 37 35 35 43 44 42 47 47 45 45 45 45 44 42 41 39 37 38 40 41 44 45 46
19 24 27 31 34 36 39 41 38 38 33 29 32 34 36 36 36 38 38 39 40 39 39 39 38 39 40 39 38 38 38 38 37 35 33 32 30 28 28 30 30 29 29 30 33 36 36 32 31 32 31 31 33 34 33 33 34 37 37 36 36 36 37 37 38 40 38 34 39 42 43 48 50 50 50 49 49 47 46 45 43 40 41 43 45 47 49 50
16 23 27 29 33 35 39 41 39 38 34 30 32 34 33 33 36 38 38 40 43 42 40 41 41 41 40 38 37 38 37 35 35 33 30 28 26 26 28 29 31 31 31 32 33 37 38 34 33 35 35 33 34 35 37 36 35 37 40 41 40 41 40 37 37 39 38 37 38 42 49 54 56 57 56 54 53 51 51 50 49 48 47 48 49 51 53 55
14 22 28 29 31 32 36 40 39 38 35 31 33 34 32 32 34 37 38 41 45 45 42 42 43 42 39 38 37 37 35 32 32 31 29 26 23 25 28 30 32 34 34 34 35 37 39 37 35 37 38 37 36 36 36 34 34 35 38 40 42 43 40 36 37 39 44 50 46 46 59 65 63 62 59 57 59 58 57 57 58 58 56 55 55 56 58 59
13 20 28 30 30 30 34 40 40 38 36 33 33 34 31 31 35 36 41 46 47 46 43 43 43 41 39 38 35 34 34 32 30 29 29 25 21 23 28 31 33 35 35 35 38 41 42 41 39 38 40 41 38 36 33 33 37 39 38 39 41 42 42 40 40 43 50 56 52 51 62 69 67 64 62 62 64 64 63 64 65 64 62 61 61 62 62 61
13 18 27 31 30 30 33 38 40 39 38 35 34 34 30 30 36 36 42 51 50 46 45 45 43 40 38 35 32 32 33 30 28 28 27 25 23 24 30 35 34 36 36 36 41 45 45 44 42 41 44 45 39 34 34 37 40 41 40 42 42 42 43 44 45 50 55 56 56 58 61 67 69 67 66 67 67 69 70 70 70 67 66 65 64 63 60 58
12 17 27 32 31 32 33 36 40 41 40 37 34 34 31 31 37 39 46 52 49 45 46 46 42 39 36 32 29 31 31 28 29 29 27 26 26 26 30 35 37 39 39 39 42 44 45 44 42 42 46 46 39 34 36 39 42 42 44 47 49 48 50 50 51 58 61 57 58 63 61 64 70 68 69 72 72 74 76 76 74 69 67 66 64 61 58 54
12 16 26 33 33 34 33 35 41 43 43 40 36 34 32 32 37 42 49 50 46 46 48 45 42 38 34 30 28 29 28 27 28 28 25 26 28 28 29 31 36 40 40 42 43 43 45 46 45 46 47 44 39 36 38 41 45 46 47 50 52 54 57 58 58 61 62 60 62 67 65 65 71 73 73 75 74 75 75 74 71 67 66 65 61 59 56 53
11 16 25 33 33 33 35 37 40 46 47 43 39 37 34 35 41 46 49 47 46 49 46 42 39 36 35 34 33 30 27 28 28 26 26 30 30 29 29 28 32 39 42 44 45 43 44 45 47 50 49 43 38 39 42 45 48 48 48 50 51 54 57 60 62 59 59 63 65 68 70 68 72 76 75 74 73 71 69 68 67 65 63 62 60 58 55 53
12 16 24 32 32 31 36 39 40 45 49 47 44 41 39 41 48 55 53 47 47 49 45 40 39 38 37 36 35 32 28 28 28 26 29 35 37 35 33 31 33 40 43 45 45 44 44 45 48 51 47 42 38 39 43 48 48 48 49 50 50 54 54 56 60 58 60 66 64 65 68 66 69 73 72 72 72 68 66 66 66 64 62 61 60 58 55 52
12 16 22 30 32 30 34 39 42 45 48 50 47 43 44 44 46 55 56 48 48 48 44 41 40 39 38 36 36 34 30 28 27 30 33 39 42 40 37 37 38 40 43 45 48 48 45 46 50 50 46 42 40 39 41 46 47 45 48 50 51 56 57 59 63 60 60 62 59 61 64 62 67 69 66 68 70 67 64 64 64 63 62 60 59 57 54 51
13 18 22 28 32 29 30 37 43 46 49 51 49 45 50 51 46 49 53 49 48 46 43 42 41 41 39 35 35 34 30 28 29 31 34 37 41 40 40 42 39 38 42 45 49 50 47 48 51 50 47 42 40 40 39 42 43 42 46 49 52 60 64 67 68 62 58 59 59 62 62 61 64 64 63 65 66 66 64 64 64 62 60 60 58 57 55 51
14 19 21 26 31 30 30 34 41 48 50 50 50 48 49 51 48 47 48 48 47 45 43 43 44 42 37 35 35 32 29 29 30 33 35 37 41 41 42 43 40 42 46 45 47 50 50 52 51 47 47 43 40 41 39 40 41 42 47 49 49 56 59 59 60 58 58 60 62 61 59 60 61 60 62 63 63 65 65 66 64 60 58 59 58 56 54 49
13 18 20 24 29 31 31 32 38 49 50 47 51 53 49 50 50 48 46 45 45 44 42 42 45 44 39 38 38 33 28 28 32 37 37 37 40 40 39 39 38 42 44 40 42 50 53 55 54 48 45 44 42 42 40 41 43 44 47 47 46 50 54 54 55 57 58 60 63 61 59 61 60 58 60 59 60 63 64 64 62 59 58 58 56 55 52 47
14 19 20 23 28 32 32 31 38 49 50 48 51 54 53 51 50 48 45 42 41 43 42 41 44 46 43 40 41 37 30 28 33 37 36 37 39 39 38 38 36 37 39 40 42 49 52 54 55 52 49 48 47 47 46 44 47 49 47 47 49 51 54 55 54 58 58 58 59 59 59 60 57 56 57 57 59 60 61 61 58 55 55 54 53 52 49 45
16 21 23 26 30 34 34 33 40 47 49 51 52 52 54 51 48 49 46 39 39 44 45 43 42 43 43 41 41 40 33 29 33 35 34 38 39 38 39 39 34 34 38 40 41 45 50 54 56 54 53 55 53 52 52 48 48 50 48 49 50 50 54 55 54 61 64 61 61 59 60 60 57 56 55 54 56 57 57 57 53 51 50 50 50 45 42 39
20 25 26 29 34 37 37 37 43 45 47 55 57 52 53 51 45 46 45 39 39 44 46 45 43 42 44 43 41 40 36 32 35 36 34 38 40 38 41 40 35 35 38 36 39 44 47 51 55 54 53 57 56 53 53 52 49 46 46 47 47 49 55 55 55 64 66 65 67 63 61 61 57 57 56 53 55 56 55 54 52 50 49 48 46 41 38 35
24 29 30 32 36 39 42 43 44 46 49 58 61 54 52 52 46 43 45 43 41 42 43 44 43 43 45 44 41 40 38 35 36 37 34 37 40 38 40 40 35 36 36 34 39 45 46 45 49 52 50 50 53 52 52 55 53 48 47 48 49 53 58 54 54 59 60 66 71 65 61 61 57 56 56 54 56 55 53 53 51 49 48 47 43 39 36 32
29 33 34 36 40 42 46 46 46 51 56 60 62 58 54 54 48 43 46 47 44 42 42 44 44 44 44 45 42 40 40 38 37 38 36 36 38 37 39 40 37 35 34 34 39 42 43 41 43 51 52 48 50 52 51 53 53 51 50 50 50 54 55 53 55 57 58 66 75 71 63 59 56 55 53 51 53 52 50 50 49 47 46 44 42 37 32 28
34 39 40 40 42 44 47 49 52 59 63 61 61 59 56 55 53 48 46 47 46 43 41 45 46 44 44 44 41 41 42 42 39 38 37 36 37 38 39 38 36 33 31 34 38 37 37 38 39 46 50 49 50 52 52 53 55 54 51 49 51 53 53 55 59 61 59 61 68 68 61 55 55 54 50 49 51 49 47 47 45 43 42 42 40 34 28 28
37 43 44 41 43 45 48 54 58 61 63 61 60 59 57 57 57 55 50 46 47 45 42 44 46 46 47 44 42 42 43 42 40 38 38 39 39 39 38 36 34 33 32 33 35 33 35 39 39 41 45 46 47 48 49 53 55 54 51 51 54 54 56 59 60 60 59 56 59 63 60 56 57 56 52 49 48 46 44 43 42 40 40 40 37 32 28 31
39 42 42 41 44 46 49 56 61 63 63 61 59 59 58 58 60 60 55 50 48 46 44 44 44 44 45 43 41 42 40 40 40 38 38 40 40 38 37 36 34 35 35 34 33 33 35 38 39 42 46 46 46 46 48 51 50 46 47 51 54 54 57 61 62 60 57 56 58 59 59 57 56 56 52 46 44 44 43 42 41 39 39 38 35 31 30 33
40 41 41 43 46 48 51 58 63 66 65 62 62 61 58 58 61 62 60 55 52 49 48 48 45 42 44 44 42 41 40 39 39 38 37 39 38 36 37 36 36 36 35 34 33 32 34 39 41 43 47 49 51 51 50 49 47 45 48 52 54 56 58 59 62 61 57 58 59 56 57 57 54 53 51 45 45 45 42 41 40 39 38 36 34 32 32 34
42 42 43 44 48 50 53 58 65 70 70 65 65 64 61 60 60 61 62 59 55 53 50 48 44 42 45 45 44 44 42 39 38 38 37 38 37 36 36 37 37 37 35 33 32 30 34 41 43 44 48 53 56 56 52 50 49 49 50 52 53 57 57 54 56 57 55 57 57 54 55 55 51 51 49 46 47 45 42 41 41 40 38 36 34 34 34 35
46 46 47 49 50 51 54 57 61 68 71 69 66 65 64 63 60 60 62 62 59 56 52 48 45 44 45 45 45 47 43 40 39 38 39 39 38 36 36 37 36 36 38 36 32 31 36 41 43 44 46 48 49 50 51 50 49 49 50 52 54 56 56 55 56 56 55 55 55 54 55 52 50 50 49 49 48 46 45 44 42 41 38 36 36 36 36 36
52 51 53 54 54 54 57 58 60 64 67 66 65 64 64 65 62 61 62 63 62 58 54 51 47 44 45 45 45 46 44 43 41 39 39 41 38 36 36 37 37 38 40 39 35 35 36 35 38 41 41 41 42 43 46 47 46 46 47 48 52 55 55 55 56 55 55 54 54 56 56 51 50 52 51 51 49 48 47 45 42 41 39 38 39 38 38 37
57 56 55 56 58 60 61 60 63 66 66 64 63 63 64 66 66 65 64 63 62 59 57 57 52 48 48 45 43 43 43 43 42 40 41 41 40 39 37 37 39 39 39 39 37 38 37 32 33 36 36 38 40 42 45 46 44 45 46 45 47 52 53 52 53 54 53 51 52 56 57 53 50 52 53 50 47 46 44 42 40 40 39 40 41 40 38 37
59 59 58 57 58 60 62 63 65 67 66 65 65 66 67 69 70 71 69 65 64 63 61 60 59 58 55 49 44 43 43 42 42 42 43 42 41 40 38 40 42 39 39 41 40 40 38 36 39 40 37 39 43 45 47 47 46 46 46 46 47 50 52 51 51 54 53 52 52 55 56 51 46 49 51 47 44 43 42 40 38 39 40 42 42 40 39 38
61 59 59 57 56 57 61 65 67 69 69 68 69 70 72 74 75 74 71 68 68 67 64 63 66 67 65 58 50 46 46 45 44 43 43 43 44 43 41 42 43 41 41 44 44 43 39 41 48 46 41 42 44 45 47 48 48 46 44 46 48 50 52 51 52 54 53 53 53 52 53 49 43 45 47 43 42 43 43 40 38 39 42 43 42 41 40 39
63 59 57 55 54 54 58 62 66 69 72 71 71 72 73 76 77 74 72 71 71 71 67 67 70 71 68 64 57 51 50 49 46 43 42 42 42 42 41 41 42 42 43 45 46 46 43 45 48 44 41 44 42 42 46 46 45 44 42 43 46 48 51 51 51 52 51 51 53 52 51 48 45 45 45 43 42 42 42 41 39 41 44 43 42 42 41 39
58 57 55 53 53 53 56 61 64 66 70 71 72 71 72 74 75 73 74 75 75 74 71 69 69 69 68 66 61 54 49 48 47 45 43 41 40 40 39 39 39 40 44 45 45 47 49 48 47 43 42 44 43 42 43 40 38 39 38 36 37 42 47 48 48 49 49 50 52 51 49 47 47 46 45 45 45 43 42 41 40 42 43 43 43 42 41 39